Date String (YYYY-MM-DD hh:mm:ss) UTC,Instrument flags,absolute air pressure of the measurement (hPa),sample flow rate (lpm),inlet stack bypass flow (lpm),air temperature of the measurement (°C),ambient temperature measured by the external sensor (°C),aerosol sample conditioner tube jacket temperature (°C),OPC LED temperature (°C),internal box temperature (°C),relative humidity of the measurement (%),span deviation,mass concentration of particles derived from Lorenz-Mie calculation of OPC scattering (μg/m³),mass concentration of particles derived from Lorenz-Mie calculation of OPC scattering (μg/m³),mass concentration of particles derived from Lorenz-Mie calculation of OPC scattering (μg/m³)
DateTimeUTC,F1_M11,P_M11,Q1_M11,Q2_M11,T1_M11,T2_M11,T3_M11,T4_M11,T5_M11,U1_M11,ZSPAN_M11,X2_M11,X0_M11,X1_M11
2024-05-01 06:00:00,SystemResetWarning,0827.2,5.00,000.00,025.6,024.7,000.0,034.2,027.4,012.7,0000.0,0003.61,0013.65,0002.05
2024-05-01 06:01:00,SystemResetWarning,0827.2,5.01,000.00,025.6,024.7,000.0,034.2,027.4,012.8,0000.0,0003.63,0013.58,0002.06
2024-05-01 06:02:00,SystemResetWarning,0827.2,5.00,000.00,025.6,024.7,000.0,034.2,027.4,012.8,0000.0,0003.58,0011.99,0002.04
2024-05-01 06:03:00,SystemResetWarning,0827.2,5.00,000.00,025.6,024.8,000.0,034.2,027.4,012.8,0000.0,0003.51,0010.72,0002.05
2024-05-01 06:04:00,SystemResetWarning,0827.2,4.99,000.00,025.6,024.8,000.0,034.2,027.4,012.8,0000.0,0003.51,0011.06,0002.05
2024-05-01 06:05:00,SystemResetWarning,0827.1,4.99,000.00,025.6,024.8,000.0,034.2,027.4,012.8,0000.0,0003.55,0011.98,0002.04
2024-05-01 06:06:00,SystemResetWarning,0827.0,5.00,000.00,025.6,024.8,000.0,034.2,027.4,012.5,0000.0,0003.59,0012.26,0002.03
2024-05-01 06:07:00,SystemResetWarning,0827.1,5.00,000.00,025.6,024.8,000.0,034.2,027.5,012.7,0000.0,0003.58,0011.94,0002.01
2024-05-01 06:08:00,SystemResetWarning,0827.1,5.00,000.00,025.6,024.8,000.0,034.2,027.5,012.6,0000.0,0003.54,0011.89,0002.00
2024-05-01 06:09:00,SystemResetWarning,0827.1,5.01,000.00,025.6,024.8,000.0,034.2,027.5,012.6,0000.0,0003.48,0010.94,0002.01
2024-05-01 06:10:00,SystemResetWarning,0827.1,4.99,000.00,025.6,024.8,000.0,034.2,027.5,012.6,0000.0,0003.45,0011.04,0002.02
2024-05-01 06:11:00,SystemResetWarning,0827.1,5.00,000.00,025.6,024.8,000.0,034.2,027.5,012.7,0000.0,0003.46,0010.44,0002.04
2024-05-01 06:12:00,SystemResetWarning,0827.2,5.00,000.00,025.6,024.8,000.0,034.2,027.5,012.6,0000.0,0003.42,0010.23,0002.04
2024-05-01 06:13:00,SystemResetWarning,0827.1,4.99,000.00,025.6,024.8,000.0,034.2,027.4,012.7,0000.0,0003.41,0009.99,0002.04
2024-05-01 06:14:00,SystemResetWarning,0827.1,5.00,000.00,025.6,024.8,000.0,034.2,027.5,012.8,0000.0,0003.43,0010.05,0002.02
2024-05-01 06:15:00,SystemResetWarning,0827.0,5.00,000.00,025.6,024.8,000.0,034.2,027.5,012.8,0000.0,0003.45,0009.93,0002.02
2024-05-01 06:16:00,SystemResetWarning,0827.0,5.01,000.00,025.6,024.8,000.0,034.2,027.4,012.6,0000.0,0003.46,0009.43,0002.03
2024-05-01 06:17:00,SystemResetWarning,0826.9,5.00,000.00,025.6,024.8,000.0,034.2,027.4,012.7,0000.0,0003.46,0009.20,0002.04
2024-05-01 06:18:00,SystemResetWarning,0827.0,4.98,000.00,025.6,024.8,000.0,034.2,027.4,012.3,0000.0,0003.46,0009.79,0002.06
2024-05-01 06:19:00,SystemResetWarning,0826.9,5.00,000.00,025.6,024.7,000.0,034.2,027.4,012.0,0000.0,0003.49,0009.73,0002.07
2024-05-01 06:20:00,SystemResetWarning,0826.9,5.01,000.00,025.6,024.7,000.0,034.2,027.4,012.2,0000.0,0003.48,0009.31,0002.05
2024-05-01 06:21:00,SystemResetWarning,0827.0,5.01,000.00,025.6,024.7,000.0,034.2,027.4,012.0,0000.0,0003.49,0009.05,0002.03
2024-05-01 06:22:00,SystemResetWarning,0827.0,4.99,000.00,025.6,024.7,000.0,034.1,027.4,011.9,0000.0,0003.50,0009.14,0002.01
2024-05-01 06:23:00,SystemResetWarning,0827.0,4.99,000.00,025.6,024.7,000.0,034.1,027.4,011.9,0000.0,0003.49,0009.05,0001.99
2024-05-01 06:24:00,SystemResetWarning,0826.9,5.02,000.00,025.6,024.7,000.0,034.1,027.4,012.0,0000.0,0003.51,0009.50,0001.98
2024-05-01 06:25:00,SystemResetWarning,0826.9,5.00,000.00,025.6,024.7,000.0,034.1,027.4,011.8,0000.0,0003.46,0009.68,0001.97
2024-05-01 06:26:00,SystemResetWarning,0826.9,4.99,000.00,025.6,024.7,000.0,034.1,027.4,011.9,0000.0,0003.45,0010.16,0001.96
2024-05-01 06:27:00,SystemResetWarning,0826.9,4.99,000.00,025.6,024.7,000.0,034.1,027.4,011.8,0000.0,0003.45,0010.16,0001.95
2024-05-01 06:28:00,SystemResetWarning,0826.9,5.01,000.00,025.6,024.7,000.0,034.1,027.4,011.9,0000.0,0003.44,0010.10,0001.96
2024-05-01 06:29:00,SystemResetWarning,0827.0,5.01,000.00,025.6,024.7,000.0,034.1,027.4,011.9,0000.0,0003.41,0009.38,0001.95
2024-05-01 06:30:00,SystemResetWarning,0826.9,4.99,000.00,025.6,024.7,000.0,034.1,027.4,011.9,0000.0,0003.40,0009.41,0001.94
2024-05-01 06:31:00,SystemResetWarning,0826.9,4.99,000.00,025.6,024.7,000.0,034.1,027.4,012.0,0000.0,0003.38,0009.39,0001.94
2024-05-01 06:32:00,SystemResetWarning,0826.8,5.01,000.00,025.6,024.7,000.0,034.1,027.4,011.9,0000.0,0003.36,0009.33,0001.94
2024-05-01 06:33:00,SystemResetWarning,0826.9,5.01,000.00,025.6,024.7,000.0,034.1,027.4,012.0,0000.0,0003.30,0008.90,0001.93
2024-05-01 06:34:00,SystemResetWarning,0826.9,4.99,000.00,025.6,024.7,000.0,034.1,027.4,012.0,0000.0,0003.31,0008.96,0001.92
2024-05-01 06:35:00,SystemResetWarning,0826.9,4.99,000.00,025.6,024.7,000.0,034.1,027.4,011.9,0000.0,0003.33,0009.80,0001.91
2024-05-01 06:36:00,SystemResetWarning,0826.9,5.00,000.00,025.6,024.7,000.0,034.1,027.4,012.0,0000.0,0003.39,0009.90,0001.91
2024-05-01 06:37:00,SystemResetWarning,0827.0,5.00,000.00,025.6,024.7,000.0,034.1,027.4,012.0,0000.0,0003.44,0009.59,0001.93
2024-05-01 06:38:00,SystemResetWarning,0827.0,5.01,000.00,025.6,024.7,000.0,034.1,027.4,011.9,0000.0,0003.38,0009.44,0001.94
2024-05-01 06:39:00,SystemResetWarning,0827.0,5.00,000.00,025.6,024.7,000.0,034.1,027.4,012.0,0000.0,0003.33,0009.70,0001.93
2024-05-01 06:40:00,SystemResetWarning,0826.9,5.00,000.00,025.6,024.7,000.0,034.1,027.4,012.0,0000.0,0003.31,0009.54,0001.93
2024-05-01 06:41:00,SystemResetWarning,0826.9,5.00,000.00,025.6,024.7,000.0,034.1,027.4,012.1,0000.0,0003.28,0009.43,0001.93
2024-05-01 06:42:00,SystemResetWarning,0826.8,5.00,000.00,025.5,024.7,000.0,034.1,027.4,012.1,0000.0,0003.32,0009.58,0001.92
2024-05-01 06:43:00,SystemResetWarning,0826.7,5.00,000.00,025.5,024.7,000.0,034.1,027.4,012.1,0000.0,0003.35,0009.65,0001.92
2024-05-01 06:44:00,SystemResetWarning,0826.8,5.00,000.00,025.5,024.7,000.0,034.1,027.4,012.1,0000.0,0003.35,0009.63,0001.93
2024-05-01 06:45:00,SystemResetWarning,0826.8,5.00,000.00,025.5,024.7,000.0,034.1,027.4,012.1,0000.0,0003.32,0009.36,0001.95
2024-05-01 06:46:00,SystemResetWarning,0826.8,5.00,000.00,025.5,024.7,000.0,034.1,027.4,012.1,0000.0,0003.27,0008.95,0001.95
2024-05-01 06:47:00,SystemResetWarning,0826.8,5.00,000.00,025.5,024.7,000.0,034.1,027.4,011.9,0000.0,0003.23,0008.74,0001.95
2024-05-01 06:48:00,SystemResetWarning,0826.9,5.00,000.00,025.5,024.6,000.0,034.1,027.3,012.0,0000.0,0003.22,0008.93,0001.92
2024-05-01 06:49:00,SystemResetWarning,0826.9,4.99,000.00,025.5,024.6,000.0,034.1,027.3,012.1,0000.0,0003.26,0009.26,0001.92
2024-05-01 06:50:00,SystemResetWarning,0827.0,5.00,000.00,025.5,024.6,000.0,034.1,027.3,012.0,0000.0,0003.26,0008.91,0001.92
2024-05-01 06:51:00,SystemResetWarning,0826.9,5.00,000.00,025.5,024.6,000.0,034.1,027.3,012.1,0000.0,0003.29,0008.95,0001.91
2024-05-01 06:52:00,SystemResetWarning,0826.9,5.00,000.00,025.5,024.6,000.0,034.1,027.3,012.3,0000.0,0003.29,0008.80,0001.90
2024-05-01 06:53:00,SystemResetWarning,0826.9,4.99,000.00,025.5,024.6,000.0,034.1,027.3,012.3,0000.0,0003.30,0008.84,0001.90
2024-05-01 06:54:00,SystemResetWarning,0826.8,5.00,000.00,025.5,024.6,000.0,034.1,027.3,012.2,0000.0,0003.31,0008.83,0001.90
2024-05-01 06:55:00,SystemResetWarning,0826.8,5.00,000.00,025.5,024.6,000.0,034.1,027.3,012.3,0000.0,0003.29,0008.74,0001.90
2024-05-01 06:56:00,SystemResetWarning,0826.8,5.01,000.00,025.4,024.6,000.0,034.1,027.3,012.3,0000.0,0003.31,0008.82,0001.89
2024-05-01 06:57:00,SystemResetWarning,0826.9,5.00,000.00,025.4,024.6,000.0,034.1,027.3,012.2,0000.0,0003.33,0008.21,0001.88
2024-05-01 06:58:00,SystemResetWarning,0827.0,4.99,000.00,025.4,024.6,000.0,034.0,027.3,012.3,0000.0,0003.33,0007.87,0001.89
2024-05-01 06:59:00,SystemResetWarning,0827.0,4.99,000.00,025.4,024.6,000.0,034.0,027.3,012.3,0000.0,0003.34,0007.49,0001.90
